{"data":{"norad_id":59552,"intl_designator":"2024-074U","name":"STARLINK-31750","alt_names":[],"object_type":"PAYLOAD","status":"ACTIVE","operator":null,"country":"US","launch_date":"2024-04-18","launch_site_code":"AFETR","launch_vehicle":null,"mission":null,"orbit_class":"UNKNOWN","rcs_meters":null,"size_class":null,"mass_kg":null,"dimensions":null,"purposes":["comms"],"wikipedia_slug":null,"has_3d_model":false,"image_url":null,"decayed_at":null,"tle_current":{"epoch":"2026-09-21T10:54:13.206528Z","epoch_age_seconds":85731,"freshness":"FRESH","line1":"1 59552U 24074U   26264.45431952  .00000062  00000+0  11789-4 0  9993","line2":"2 59552  43.0016 317.9759 0001256 285.5902  74.4811 15.27575272135959","mean_motion":15.27575272,"eccentricity":0.0001256,"inclination_deg":43.0016,"raan_deg":317.9759,"arg_perigee_deg":285.5902,"mean_anomaly_deg":74.4811,"bstar":1.1789e-5,"rev_number":13595,"period_min":94.267040478775,"perigee_km":482.20148665723,"apogee_km":483.92502016089,"semimajor_km":6861.2002534091,"source":"CELESTRAK","updated_at":"2026-09-22T09:00:48.975265Z"}}}